Location: Flynn Junction
(40.1314°N, 99.5162°W)
Time: 21:51:57
(UTC+00:00)

Cosmos 1092 Rocket - Pass Details

Date: 29 October 2020
Orbit: 955 x 994 km, 83.0° (Epoch: 30 November)

Event Time Altitude Azimuth Distance (km) Brightness Sun altitude
Rises 12:00:15 0° 210° (SSW) 3,627 6.8 -12.8°
Reaches altitude 10° 12:02:56 10° 219° (SW) 2,690 6.0 -12.3°
Maximum altitude 12:08:33 36° 285° (WNW) 1,484 4.5 -11.3°
Drops below altitude 10° 12:14:15 10° 351° (N) 2,728 6.2 -10.2°
Sets 12:17:01 0° 359° (N) 3,686 6.9 -9.7°
